This is the latest recevied weather packets stored in our database for station/object WZ8H. If no packets are shown the sender has not sent any weather packets the latest 10 day(s).
| Time | Temp. | Humidity | Pressure | Rain* | Wind** | Luminosity | Snow |
|---|---|---|---|---|---|---|---|
| 1777811368 | 7.78° C | 69% | 1015.1 hPa | 0 mm | - | 311 W/m² | - |
| 1777811065 | 7.22° C | 69% | 1015.1 hPa | 0 mm | - | 290 W/m² | - |
| 1777810745 | 7.22° C | 70% | 1015.2 hPa | 0 mm | - | 276 W/m² | - |
| 1777810434 | 7.22° C | 70% | 1015.2 hPa | 0 mm | - | 255 W/m² | - |
| 1777810113 | 6.67° C | 70% | 1015.3 hPa | 0 mm | - | 237 W/m² | - |
| 1777809784 | 6.67° C | 69% | 1015.3 hPa | 0 mm | - | 218 W/m² | - |
| 1777809453 | 6.67° C | 69% | 1015.2 hPa | 0 mm | - | 199 W/m² | - |
| 1777809127 | 6.11° C | 69% | 1015.2 hPa | 0 mm | - | 179 W/m² | - |
| 1777808827 | 6.11° C | 70% | 1015.2 hPa | 0 mm | - | 158 W/m² | - |
| 1777808501 | 6.11° C | 69% | 1015.3 hPa | 0 mm | - | 134 W/m² | - |
| 1777808197 | 6.11° C | 70% | 1015.2 hPa | 0 mm | - | 113 W/m² | - |
| 1777807895 | 5.56° C | 70% | 1015 hPa | 0 mm | - | 93 W/m² | - |
| 1777807596 | 5.56° C | 71% | 1015 hPa | 0 mm | - | 77 W/m² | - |
| 1777807294 | 5.56° C | 71% | 1015 hPa | 0 mm | - | 67 W/m² | - |
| 1777806995 | 5.56° C | 73% | 1014.9 hPa | 0 mm | - | 53 W/m² | - |
| 1777806678 | 5° C | 73% | 1015 hPa | 0 mm | - | 44 W/m² | - |
| 1777806372 | 5° C | 74% | 1015 hPa | 0 mm | - | 37 W/m² | - |
| 1777806073 | 5° C | 75% | 1015 hPa | 0 mm | - | 26 W/m² | - |
| 1777805749 | 5° C | 76% | 1014.9 hPa | 0 mm | - | 21 W/m² | - |
| 1777805437 | 4.44° C | 77% | 1014.9 hPa | 0 mm | - | 19 W/m² | - |
| 1777805135 | 4.44° C | 78% | 1014.8 hPa | 0 mm | - | 16 W/m² | - |
| 1777804829 | 4.44° C | 78% | 1014.8 hPa | 0 mm | - | 12 W/m² | - |
| 1777804535 | 4.44° C | 78% | 1014.8 hPa | 0 mm | - | 9 W/m² | - |
| 1777804221 | 4.44° C | 78% | 1014.7 hPa | 0 mm | - | 7 W/m² | - |
| 1777803921 | 4.44° C | 77% | 1014.7 hPa | 0 mm | - | 5 W/m² | - |
* Rain latest hour (hover to see other rain measurements)
** Current wind speed in m/s (hover to see current wind gust speed)